GW4277 Weather Reports


time (UTC)temp
F
wind
direction
speed
knots
gust
knots
rain 1hr
in
rain 24hr
in
rain mn
in
humidity
%
barometer
mb
20260906193708 71 116 1.7 1.7 0.00 0.00 0.00 87 1020.2
20260906193208 71 142 2.6 4.3 0.00 0.00 0.00 87 1020.3
20260906192704 71 108 0.9 1.7 0.00 0.00 0.00 88 1019.9
20260906192158 71 81 3.5 6.1 0.00 0.00 0.00 87 1019.9
20260906191652 71 95 1.7 2.6 0.00 0.00 0.00 88 1019.7
20260906191151 71 132 1.7 2.6 0.00 0.00 0.00 87 1019.6
20260906190646 71 214 3.5 4.3 0.00 0.00 0.00 87 1019.7
20260906190140 71 316 1.7 2.6 0.00 0.00 0.00 87 1019.3
20260906185639 71 212 4.3 13.0 0.00 0.00 0.00 88 1019.3
20260906185133 71 168 6.1 7.8 0.00 0.00 0.00 89 1019.3
20260906184627 71 169 13.9 20.9 0.00 0.00 0.00 89 1019.4
20260906184124 71 71 8.7 12.2 0.00 0.00 0.00 88 1019.4
20260906183619 72 229 5.2 7.8 0.00 0.00 0.00 87 1019.6
20260906183115 73 100 2.6 2.6 0.00 0.00 0.00 86 1019.3
20260906182609 80 182 11.3 18.2 0.00 0.00 0.00 79 1019.3
20260906182106 81 51 1.7 2.6 0.00 0.00 0.00 83 1018.9
20260906181601 81 88 0.0 0.0 0.00 0.00 0.00 84 1018.9
20260906181051 81 328 3.5 4.3 0.00 0.00 0.00 84 1018.9
20260906180551 81 351 2.6 2.6 0.00 0.00 0.00 83 1018.9
20260906180049 81 319 4.3 6.1 0.00 0.00 0.00 83 1018.6
20260906175549 80 295 5.2 7.8 0.00 0.00 0.00 86 1018.5
20260906175044 80 318 4.3 6.1 0.00 0.00 0.00 87 1018.7
20260906174542 80 14 5.2 7.8 0.00 0.00 0.00 86 1018.5
20260906174032 80 54 1.7 2.6 0.00 0.00 0.00 87 1018.5
20260906173527 80 318 5.2 7.8 0.00 0.00 0.00 87 1018.6
20260906173023 80 326 1.7 1.7 0.00 0.00 0.00 87 1018.6
20260906172517 79 307 6.1 8.7 0.00 0.00 0.00 88 1018.8
20260906172012 79 347 2.6 2.6 0.00 0.00 0.00 90 1018.8
20260906171507 79 197 2.6 2.6 0.00 0.00 0.00 91 1019.0
20260906171003 79 67 1.7 2.6 0.00 0.00 0.00 91 1019.0
20260906170458 79 212 2.6 4.3 0.00 0.00 0.00 92 1018.9
20260906165955 79 207 3.5 4.3 0.00 0.00 0.00 91 1019.3
20260906165454 79 241 4.3 4.3 0.00 0.00 0.00 91 1019.4
20260906164949 79 203 4.3 7.8 0.00 0.00 0.00 91 1019.4
20260906164448 79 260 1.7 2.6 0.00 0.00 0.00 92 1019.1
20260906163945 79 273 3.5 6.1 0.00 0.00 0.00 92 1018.9
20260906163440 79 114 3.5 4.3 0.00 0.00 0.00 92 1018.9
20260906162938 79 162 4.3 6.1 0.00 0.00 0.00 91 1018.5
20260906162437 79 67 2.6 2.6 0.00 0.00 0.00 92 1018.4
20260906161932 79 124 0.9 1.7 0.00 0.00 0.00 91 1018.3
20260906161431 79 144 2.6 2.6 0.00 0.00 0.00 92 1018.3
20260906160931 79 189 7.0 7.8 0.00 0.00 0.00 92 1018.2
20260906160424 79 114 3.5 4.3 0.00 0.00 0.00 92 1018.3
20260906155922 79 244 3.5 4.3 0.00 0.00 0.00 91 1018.2
20260906155417 79 155 1.7 2.6 0.00 0.00 0.00 91 1018.1
20260906154913 79 132 1.7 2.6 0.00 0.00 0.00 91 1018.1
20260906154412 79 204 2.6 4.3 0.00 0.00 0.00 91 1018.0
20260906153911 79 251 2.6 2.6 0.00 0.00 0.00 90 1017.8
20260906153410 79 198 2.6 4.3 0.00 0.00 0.00 90 1017.8
20260906152906 78 83 0.0 0.0 0.00 0.00 0.00 91 1017.7
20260906152400 78 200 1.7 2.6 0.00 0.00 0.00 90 1017.8
20260906151859 78 200 3.5 4.3 0.00 0.00 0.00 91 1017.9
20260906151355 77 128 1.7 2.6 0.00 0.00 0.00 92 1017.8
20260906150851 78 117 2.6 2.6 0.00 0.00 0.00 93 1018.2
20260906150346 78 126 1.7 1.7 0.00 0.00 0.00 95 1018.1
20260906145845 78 126 0.9 1.7 0.00 0.00 0.00 95 1017.9
20260906145344 77 102 0.0 0.0 0.00 0.00 0.00 95 1017.9
20260906144839 77 226 1.7 2.6 0.00 0.00 0.00 94 1018.2
20260906144334 77 161 2.6 4.3 0.00 0.00 0.00 95 1018.1
20260906143834 77 238 2.6 2.6 0.00 0.00 0.00 95 1018.0
20260906143331 77 230 4.3 6.1 0.00 0.00 0.00 95 1018.2
20260906142826 77 228 3.5 6.1 0.00 0.00 0.00 96 1018.1
20260906142321 77 180 2.6 2.6 0.00 0.00 0.00 96 1018.1
20260906141820 77 173 1.7 2.6 0.00 0.00 0.00 96 1018.0
20260906141315 76 234 2.6 2.6 0.00 0.00 0.00 96 1018.1
20260906140814 76 221 1.7 2.6 0.00 0.00 0.00 97 1018.0
20260906140309 76 118 0.0 1.7 0.00 0.00 0.00 97 1017.6
20260906135807 76 98 0.0 1.7 0.00 0.00 0.00 98 1017.7
20260906135305 76 197 2.6 4.3 0.00 0.00 0.00 98 1017.6
20260906134757 76 162 2.6 4.3 0.00 0.00 0.00 98 1017.3
20260906134252 76 203 0.9 1.7 0.00 0.00 0.00 98 1017.5
20260906133748 76 114 0.0 1.7 0.00 0.00 0.00 98 1017.5
20260906133243 75 126 1.7 2.6 0.00 0.00 0.00 98 1017.6
20260906132738 75 123 1.7 4.3 0.00 0.00 0.00 99 1017.3
20260906132234 75 209 0.9 1.7 0.00 0.00 0.00 99 1017.3
20260906131730 75 203 0.9 1.7 0.00 0.00 0.00 99 1017.5
20260906131224 75 150 1.7 4.3 0.00 0.00 0.00 99 1017.6
20260906130720 75 198 3.5 4.3 0.00 0.00 0.00 99 1017.3
20260906130215 75 138 0.0 1.7 0.00 0.00 0.00 99 1017.5
20260906125713 75 173 4.3 6.1 0.00 0.00 0.00 99 1017.1
20260906125212 75 120 1.7 2.6 0.00 0.00 0.00 99 1017.2
20260906124707 74 155 4.3 6.1 0.00 0.00 0.00 99 1017.2
20260906124202 74 119 1.7 4.3 0.00 0.00 0.00 99 1017.2
20260906123701 74 145 3.5 4.3 0.00 0.00 0.00 99 1017.2
20260906123156 74 164 0.9 1.7 0.00 0.00 0.00 99 1017.0
20260906122655 74 149 5.2 7.8 0.00 0.00 0.00 99 1017.1
20260906122151 74 287 4.3 7.8 0.00 0.00 0.00 99 1017.2
20260906121647 74 160 0.0 1.7 0.00 0.00 0.00 99 1017.2
20260906121138 74 175 0.9 2.6 0.00 0.00 0.00 99 1017.3
20260906120633 74 211 2.6 2.6 0.00 0.00 0.00 99 1017.0
20260906120130 74 146 1.7 2.6 0.00 0.00 0.00 99 1017.1
20260906115624 74 194 1.7 2.6 0.00 0.00 0.00 99 1017.1
20260906115120 74 228 4.3 6.1 0.00 0.00 0.00 99 1017.0
20260906114613 74 118 0.9 1.7 0.00 0.00 0.00 99 1017.0
20260906114108 74 180 3.5 4.3 0.00 0.00 0.00 99 1016.8
20260906113608 74 107 0.9 1.7 0.00 0.00 0.00 99 1016.9
20260906113103 74 158 0.9 2.6 0.00 0.00 0.00 99 1016.9
20260906112603 74 153 1.7 2.6 0.00 0.00 0.00 99 1016.7
20260906112100 74 133 0.9 1.7 0.00 0.00 0.00 99 1016.8
20260906111559 74 124 0.0 0.0 0.00 0.00 0.00 99 1016.5
20260906111054 74 92 0.0 0.0 0.00 0.00 0.00 99 1016.4
20260906110554 74 101 0.0 0.0 0.00 0.00 0.00 99 1016.5
20260906110054 74 120 0.0 0.0 0.00 0.00 0.00 99 1016.5
20260906105548 74 143 0.9 1.7 0.00 0.00 0.00 99 1016.4
20260906105045 74 204 0.0 1.7 0.00 0.00 0.00 99 1016.3
20260906104543 74 156 0.0 0.0 0.00 0.00 0.00 99 1016.3
20260906104037 74 94 1.7 1.7 0.00 0.00 0.00 99 1016.5
20260906103536 74 170 1.7 2.6 0.00 0.00 0.00 99 1016.4
20260906103031 74 120 2.6 2.6 0.00 0.00 0.00 99 1016.5
20260906102531 74 110 1.7 2.6 0.00 0.00 0.00 99 1016.4
20260906102026 74 97 0.9 1.7 0.00 0.00 0.00 99 1016.2
20260906101521 73 98 3.5 4.3 0.00 0.00 0.00 99 1016.5
20260906101016 74 123 1.7 2.6 0.00 0.00 0.00 99 1016.3
20260906100512 73 125 2.6 2.6 0.00 0.00 0.00 99 1016.3
20260906100012 73 106 0.0 1.7 0.00 0.00 0.00 99 1016.1
20260906095506 73 133 3.5 4.3 0.00 0.00 0.00 99 1016.3
20260906095002 73 97 0.9 1.7 0.00 0.00 0.00 99 1016.4
20260906094500 73 106 0.0 0.0 0.00 0.00 0.00 99 1016.3
20260906093957 73 111 0.0 0.0 0.00 0.00 0.00 99 1016.3
20260906093453 73 111 0.0 0.0 0.00 0.00 0.00 99 1016.4
20260906092953 73 104 0.0 0.0 0.00 0.00 0.00 99 1016.4
20260906092453 73 103 0.0 0.0 0.00 0.00 0.00 99 1016.6
20260906091948 73 104 0.0 0.0 0.00 0.00 0.00 99 1016.7
20260906091438 73 104 0.0 0.0 0.00 0.00 0.00 99 1016.8
20260906090934 73 105 0.0 0.0 0.00 0.00 0.00 99 1016.7
20260906090429 73 112 0.0 0.0 0.00 0.00 0.00 99 1016.6
20260906085924 74 103 0.0 0.0 0.00 0.00 0.00 99 1016.9
20260906085424 74 107 0.0 0.0 0.00 0.00 0.00 99 1016.8
20260906084923 74 104 0.0 0.0 0.00 0.00 0.00 99 1017.0
20260906084418 74 105 0.0 0.0 0.00 0.00 0.00 98 1016.8
20260906083917 74 101 0.0 0.0 0.00 0.00 0.00 98 1017.0
20260906083413 74 106 0.0 0.0 0.00 0.00 0.00 98 1017.0
20260906082912 74 112 0.0 0.0 0.00 0.00 0.00 98 1016.8
20260906082407 75 136 2.6 2.6 0.00 0.00 0.00 98 1016.8
20260906081903 75 129 1.7 1.7 0.00 0.00 0.00 98 1016.5
20260906081358 75 114 0.0 1.7 0.00 0.00 0.00 98 1016.5
20260906080854 75 168 1.7 1.7 0.00 0.00 0.00 98 1016.3
20260906080351 75 119 0.9 1.7 0.00 0.00 0.00 98 1016.2
20260906075849 75 101 0.0 1.7 0.00 0.00 0.00 98 1016.3
20260906075344 75 148 1.7 2.6 0.00 0.00 0.00 98 1016.2
20260906074840 75 127 0.0 0.0 0.00 0.00 0.00 98 1016.2
20260906074339 75 123 0.0 1.7 0.00 0.00 0.00 98 1016.3
20260906073838 75 109 0.0 1.7 0.00 0.00 0.00 98 1016.3
20260906073333 74 132 1.7 4.3 0.00 0.00 0.00 98 1016.3
20260906072830 74 151 1.7 2.6 0.00 0.00 0.00 98 1016.5
20260906072325 74 118 0.9 1.7 0.00 0.00 0.00 98 1016.6
20260906071821 74 119 0.0 0.0 0.00 0.00 0.00 98 1016.3
20260906071315 74 105 0.0 0.0 0.00 0.00 0.00 98 1016.7
20260906070812 74 116 0.0 0.0 0.00 0.00 0.00 98 1016.6
20260906070308 74 112 0.0 0.0 0.00 0.00 0.00 98 1016.7
20260906065808 74 128 1.7 1.7 0.00 0.00 0.00 98 1016.8
20260906065305 74 121 0.0 0.0 0.00 0.00 0.00 98 1016.8
20260906064758 73 215 0.0 1.7 0.00 0.00 0.00 98 1016.6
20260906064254 73 97 0.0 0.0 0.00 0.00 0.00 98 1016.8
20260906063749 73 112 0.9 1.7 0.00 0.00 0.00 98 1016.8
20260906063245 73 114 0.0 0.0 0.00 0.00 0.00 98 1016.8
20260906062739 73 118 1.7 2.6 0.00 0.00 0.00 98 1016.7
20260906062239 73 100 0.9 1.7 0.00 0.00 0.00 98 1016.8
20260906061735 73 119 1.7 2.6 0.00 0.00 0.00 98 1016.9
20260906061231 73 128 0.9 1.7 0.00 0.00 0.00 98 1016.7
20260906060726 73 113 0.0 1.7 0.00 0.00 0.00 98 1016.5
20260906060224 73 148 0.0 1.7 0.00 0.00 0.00 98 1016.7
20260906055719 73 106 0.0 0.0 0.00 0.00 0.00 97 1016.8
20260906055214 73 108 0.0 0.0 0.00 0.00 0.00 97 1016.7
20260906054709 73 116 0.9 1.7 0.00 0.00 0.00 97 1016.8
20260906054204 73 125 0.9 1.7 0.00 0.00 0.00 97 1016.7
20260906053701 73 95 0.0 0.0 0.00 0.00 0.00 97 1017.0
20260906053156 73 128 1.7 2.6 0.00 0.00 0.00 97 1016.8
20260906052651 73 120 0.9 1.7 0.00 0.00 0.00 97 1016.9
20260906052148 72 114 0.9 1.7 0.00 0.00 0.00 97 1016.8
20260906051644 72 110 0.9 1.7 0.00 0.00 0.00 97 1016.7
20260906051143 72 109 0.0 1.7 0.00 0.00 0.00 97 1016.8
20260906050639 72 105 0.0 0.0 0.00 0.00 0.00 97 1016.8
20260906050134 72 102 0.0 0.0 0.00 0.00 0.00 96 1017.1
20260906045632 72 99 0.0 0.0 0.00 0.64 0.64 96 1016.8
20260906045128 72 97 0.0 0.0 0.00 0.64 0.64 95 1016.8
20260906044624 73 112 0.0 0.0 0.00 0.64 0.64 95 1017.0
20260906044119 73 138 0.9 1.7 0.00 0.64 0.64 95 1017.0
20260906043615 73 127 2.6 2.6 0.00 0.64 0.64 95 1017.0
20260906043110 73 111 0.0 0.0 0.00 0.64 0.64 95 1017.1
20260906042609 72 102 1.7 1.7 0.00 0.64 0.64 95 1017.5
20260906042104 72 92 0.0 0.0 0.00 0.64 0.64 95 1017.0
20260906041600 73 120 0.9 1.7 0.00 0.64 0.64 95 1017.1
20260906041054 73 125 0.9 1.7 0.00 0.64 0.64 94 1017.3
20260906040550 73 121 1.7 2.6 0.00 0.64 0.64 94 1017.3
20260906040045 73 130 1.7 2.6 0.00 0.64 0.64 93 1017.6
20260906035541 73 130 2.6 2.6 0.00 0.64 0.64 93 1017.3
20260906035031 74 123 1.7 2.6 0.00 0.64 0.64 93 1017.3
20260906034530 73 100 2.6 2.6 0.00 0.64 0.64 93 1017.3
20260906034026 73 103 0.0 1.7 0.00 0.64 0.64 93 1017.3
20260906033520 74 145 1.7 2.6 0.00 0.64 0.64 92 1017.2
20260906033016 74 123 3.5 4.3 0.00 0.64 0.64 92 1017.1
20260906032507 74 94 4.3 4.3 0.00 0.64 0.64 92 1016.9
20260906032006 73 127 1.7 2.6 0.00 0.64 0.64 93 1016.9
20260906031502 74 122 1.7 2.6 0.00 0.64 0.64 91 1016.9
20260906030957 74 155 3.5 4.3 0.00 0.64 0.64 90 1016.9
20260906030451 74 112 0.9 1.7 0.00 0.64 0.64 90 1016.8
20260906025945 74 100 0.0 0.0 0.00 0.64 0.64 90 1017.0
20260906025440 74 128 0.0 0.0 0.00 0.64 0.64 90 1016.9
20260906024939 74 128 1.7 2.6 0.00 0.64 0.64 90 1016.9
20260906024439 74 114 1.7 1.7 0.00 0.64 0.64 90 1017.0
20260906023938 73 118 0.0 0.0 0.00 0.64 0.64 91 1016.9
20260906023435 73 110 0.0 0.0 0.00 0.64 0.64 91 1016.8
20260906022930 74 111 0.0 0.0 0.00 0.64 0.64 90 1016.7
20260906022426 75 129 1.7 2.6 0.00 0.64 0.64 88 1016.7
20260906021921 76 145 3.5 6.1 0.00 0.64 0.64 86 1016.8
20260906021420 76 132 3.5 4.3 0.00 0.64 0.64 86 1016.7
20260906020915 76 117 2.6 2.6 0.00 0.64 0.64 86 1016.8
20260906020415 76 133 0.9 1.7 0.00 0.64 0.64 85 1016.6
20260906015909 75 118 3.5 4.3 0.00 0.64 0.64 86 1016.5
20260906015409 75 107 0.9 1.7 0.00 0.64 0.64 87 1016.4
20260906014908 75 121 1.7 2.6 0.00 0.64 0.64 86 1016.5
20260906014403 76 104 1.7 2.6 0.00 0.64 0.64 85 1016.4
20260906013859 76 81 4.3 6.1 0.00 0.64 0.64 84 1016.4
20260906013354 76 147 1.7 2.6 0.00 0.64 0.64 84 1016.3
20260906012850 76 131 2.6 2.6 0.00 0.64 0.64 84 1016.1
20260906012345 77 109 0.0 1.7 0.00 0.64 0.64 84 1016.2
20260906011844 77 117 3.5 4.3 0.00 0.64 0.64 83 1016.1
20260906011339 77 139 1.7 2.6 0.00 0.64 0.64 83 1016.2
20260906010835 78 102 1.7 2.6 0.00 0.64 0.64 81 1016.1
20260906010331 78 160 3.5 4.3 0.00 0.64 0.64 80 1016.2
20260906005827 78 107 1.7 2.6 0.00 0.64 0.64 81 1016.2
20260906005326 78 127 1.7 2.6 0.00 0.64 0.64 80 1016.0
20260906004825 79 107 0.0 1.7 0.00 0.64 0.64 78 1015.9
20260906004324 80 143 1.7 2.6 0.00 0.64 0.64 77 1016.0
20260906003820 80 100 0.9 1.7 0.00 0.64 0.64 76 1016.1
20260906003315 80 58 0.9 1.7 0.00 0.64 0.64 76 1015.8
20260906002811 80 105 0.9 1.7 0.00 0.64 0.64 75 1015.7
20260906002310 80 250 1.7 2.6 0.00 0.64 0.64 74 1015.7
20260906001806 81 123 0.0 1.7 0.00 0.64 0.64 75 1015.7
20260906001301 81 141 3.5 4.3 0.00 0.64 0.64 74 1015.8
20260906000755 82 119 2.6 2.6 0.00 0.64 0.64 72 1015.7
20260906000250 82 157 1.7 2.6 0.00 0.64 0.64 72 1015.7
20260905235745 83 141 1.7 2.6 0.00 0.64 0.64 70 1015.7
20260905235244 84 111 3.5 6.1 0.00 0.64 0.64 68 1015.5
20260905234740 84 142 3.5 4.3 0.00 0.64 0.64 66 1015.7
20260905234235 85 206 4.3 8.7 0.00 0.64 0.64 64 1015.6
20260905233731 85 247 5.2 7.8 0.00 0.64 0.64 63 1015.7
20260905233230 86 193 2.6 2.6 0.00 0.64 0.64 63 1015.7
20260905232730 87 171 6.1 8.7 0.00 0.64 0.64 60 1015.6
20260905232226 87 203 6.1 7.8 0.00 0.64 0.64 60 1015.6
20260905231721 87 184 4.3 6.1 0.00 0.64 0.64 59 1015.6
20260905231217 87 238 4.3 6.1 0.00 0.64 0.64 60 1015.7
20260905230713 88 178 5.2 7.8 0.00 0.64 0.64 59 1015.4
20260905230210 88 220 7.0 8.7 0.00 0.64 0.64 58 1015.5
20260905225710 88 187 4.3 7.8 0.00 0.64 0.64 57 1015.4
20260905225205 89 261 3.5 4.3 0.00 0.64 0.64 56 1015.5
20260905224705 89 250 6.1 7.8 0.00 0.64 0.64 56 1015.5
20260905224200 89 180 2.6 2.6 0.00 0.64 0.64 56 1015.5
20260905223656 89 258 5.2 7.8 0.00 0.64 0.64 55 1015.5
20260905223153 89 253 5.2 6.1 0.00 0.64 0.64 54 1015.4
20260905222648 89 229 5.2 7.8 0.00 0.64 0.64 54 1015.6
20260905222143 89 153 1.7 4.3 0.00 0.64 0.64 55 1015.5
20260905221638 90 174 8.7 12.2 0.00 0.64 0.64 54 1015.3
20260905221135 90 127 3.5 6.1 0.00 0.64 0.64 52 1015.4
20260905220631 89 185 4.3 7.8 0.00 0.64 0.64 51 1015.1
20260905220127 88 151 3.5 4.3 0.00 0.64 0.64 52 1015.3
20260905215626 89 122 6.1 8.7 0.00 0.64 0.64 50 1015.1
20260905215122 89 247 1.7 2.6 0.00 0.64 0.64 52 1015.2
20260905214617 90 224 4.3 6.1 0.00 0.64 0.64 52 1015.2
20260905214112 90 209 5.2 8.7 0.00 0.64 0.64 51 1015.0
20260905213607 90 227 6.1 10.4 0.00 0.64 0.64 51 1015.1
20260905213103 90 247 4.3 6.1 0.00 0.64 0.64 52 1015.1
20260905212602 90 215 4.3 7.8 0.00 0.64 0.64 51 1015.4
20260905212102 90 101 5.2 7.8 0.00 0.64 0.64 54 1015.3
20260905211557 90 231 4.3 4.3 0.00 0.64 0.64 54 1015.2
20260905211053 90 221 5.2 6.1 0.00 0.64 0.64 53 1015.3
20260905210549 89 174 3.5 7.8 0.00 0.64 0.64 54 1015.2
20260905210044 89 177 4.3 7.8 0.00 0.64 0.64 54 1015.2
20260905205543 90 125 4.3 7.8 0.00 0.64 0.64 54 1015.3
20260905205042 89 63 1.7 2.6 0.00 0.64 0.64 55 1015.3
20260905204538 90 169 6.1 7.8 0.00 0.64 0.64 55 1015.3
20260905204033 90 175 3.5 4.3 0.00 0.64 0.64 55 1015.2
20260905203532 90 168 1.7 2.6 0.00 0.64 0.64 55 1015.1
20260905203028 90 112 2.6 4.3 0.00 0.64 0.64 55 1015.0
20260905202523 89 253 2.6 4.3 0.00 0.64 0.64 57 1015.0
20260905202019 89 139 3.5 6.1 0.00 0.64 0.64 55 1015.1
20260905201514 88 257 5.2 7.8 0.00 0.64 0.64 55 1015.0
20260905201014 89 196 6.1 7.8 0.00 0.64 0.64 57 1015.2
20260905200509 88 127 1.7 2.6 0.00 0.64 0.64 58 1015.4
20260905200008 88 219 3.5 6.1 0.00 0.64 0.64 56 1015.1
20260905195503 86 115 4.3 7.8 0.00 0.64 0.64 58 1015.1
20260905194958 87 139 0.0 1.7 0.00 0.64 0.64 57 1015.1
20260905194458 88 238 3.5 4.3 0.00 0.64 0.64 58 1015.2
20260905193957 88 151 1.7 2.6 0.00 0.64 0.64 56 1015.4